Time,TemperatureF,DewpointF,PressureIn,WindDirection,WindDirectionDegrees,WindSpeedMPH,WindSpeedGustMPH,Humidity,HourlyPrecipIn,Conditions,Clouds,dailyrainin,SoftwareType,DateUTC
2013-09-05 00:12:00,68.0,64.0,30.13,ENE,75,0.0,0.0,87,0.00,,,0.00,,2013-09-05 05:12:00,
2013-09-05 00:23:00,68.0,64.0,30.13,ENE,75,0.0,0.0,88,0.00,,,0.00,,2013-09-05 05:23:00,
2013-09-05 00:43:00,68.0,65.0,30.12,ENE,75,0.0,0.0,90,0.00,,,0.00,,2013-09-05 05:43:00,
2013-09-05 00:52:00,67.0,64.0,30.12,ENE,75,0.0,0.0,89,0.00,,,0.00,,2013-09-05 05:52:00,
2013-09-05 01:12:00,67.0,64.0,30.12,ENE,75,0.0,0.0,90,0.00,,,0.00,,2013-09-05 06:12:00,
2013-09-05 01:22:00,67.0,64.0,30.12,ENE,75,0.0,0.0,91,0.00,,,0.00,,2013-09-05 06:22:00,
2013-09-05 01:42:00,66.0,63.0,30.12,ENE,75,0.0,0.0,91,0.00,,,0.00,,2013-09-05 06:42:00,
2013-09-05 01:52:00,66.0,64.0,30.12,ENE,75,0.0,0.0,92,0.00,,,0.00,,2013-09-05 06:52:00,
2013-09-05 02:12:00,66.0,64.0,30.12,ENE,75,0.0,0.0,92,0.00,,,0.00,,2013-09-05 07:12:00,
2013-09-05 02:23:00,65.0,63.0,30.12,ENE,75,0.0,0.0,92,0.00,,,0.00,,2013-09-05 07:23:00,
2013-09-05 02:42:00,65.0,63.0,30.12,ENE,75,0.0,0.0,93,0.00,,,0.00,,2013-09-05 07:42:00,
2013-09-05 02:52:00,65.0,63.0,30.12,ENE,75,0.0,0.0,93,0.00,,,0.00,,2013-09-05 07:52:00,
2013-09-05 03:12:00,65.0,63.0,30.12,ENE,75,0.0,0.0,93,0.00,,,0.00,,2013-09-05 08:12:00,
2013-09-05 03:22:00,64.0,62.0,30.12,ENE,75,0.0,0.0,93,0.00,,,0.00,,2013-09-05 08:22:00,
2013-09-05 03:42:00,64.0,62.0,30.12,ENE,75,0.0,0.0,93,0.00,,,0.00,,2013-09-05 08:42:00,
2013-09-05 03:52:00,64.0,62.0,30.13,ENE,75,0.0,0.0,94,0.00,,,0.00,,2013-09-05 08:52:00,
2013-09-05 04:11:00,64.0,62.0,30.12,ENE,75,0.0,0.0,94,0.00,,,0.00,,2013-09-05 09:11:00,
2013-09-05 04:22:00,64.0,62.0,30.12,ENE,75,0.0,0.0,94,0.00,,,0.00,,2013-09-05 09:22:00,
2013-09-05 04:43:00,64.0,62.0,30.12,ENE,75,0.0,0.0,94,0.00,,,0.00,,2013-09-05 09:43:00,
2013-09-05 04:54:00,63.0,61.0,30.12,ENE,75,0.0,0.0,94,0.00,,,0.00,,2013-09-05 09:54:00,
2013-09-05 05:12:00,63.0,62.0,30.13,ENE,75,0.0,0.0,95,0.00,,,0.00,,2013-09-05 10:12:00,
2013-09-05 05:23:00,63.0,62.0,30.13,ENE,75,0.0,0.0,95,0.00,,,0.00,,2013-09-05 10:23:00,
2013-09-05 05:43:00,63.0,62.0,30.13,ENE,75,0.0,0.0,95,0.00,,,0.00,,2013-09-05 10:43:00,
2013-09-05 05:53:00,63.0,62.0,30.14,ENE,75,0.0,0.0,95,0.00,,,0.00,,2013-09-05 10:53:00,
2013-09-05 06:12:00,63.0,62.0,30.14,ENE,75,0.0,0.0,95,0.00,,,0.00,,2013-09-05 11:12:00,
2013-09-05 06:22:00,63.0,62.0,30.14,ENE,75,0.0,0.0,95,0.00,,,0.00,,2013-09-05 11:22:00,
2013-09-05 06:42:00,63.0,62.0,30.14,ENE,75,0.0,0.0,96,0.00,,,0.00,,2013-09-05 11:42:00,
2013-09-05 06:52:00,63.0,62.0,30.14,ENE,75,0.0,0.0,95,0.00,,,0.00,,2013-09-05 11:52:00,
2013-09-05 07:12:00,62.0,61.0,30.14,ENE,75,0.0,0.0,95,0.00,,,0.00,,2013-09-05 12:12:00,
2013-09-05 07:22:00,62.0,61.0,30.15,ENE,75,0.0,0.0,96,0.00,,,0.00,,2013-09-05 12:22:00,
2013-09-05 07:42:00,63.0,62.0,30.15,ENE,75,0.0,0.0,96,0.00,,,0.00,,2013-09-05 12:42:00,
2013-09-05 07:52:00,63.0,62.0,30.16,ENE,75,0.0,0.0,96,0.00,,,0.00,,2013-09-05 12:52:00,
2013-09-05 08:12:00,64.0,63.0,30.16,ENE,75,0.0,0.0,96,0.00,,,0.00,,2013-09-05 13:12:00,
2013-09-05 08:21:00,66.0,64.0,30.16,ENE,69,1.0,3.0,93,0.00,,,0.00,,2013-09-05 13:21:00,
2013-09-05 08:42:00,67.0,64.0,30.16,ENE,64,2.0,3.0,89,0.00,,,0.00,,2013-09-05 13:42:00,
2013-09-05 08:53:00,69.0,65.0,30.16,ENE,67,1.0,3.0,88,0.00,,,0.00,,2013-09-05 13:53:00,
2013-09-05 09:12:00,70.0,65.0,30.16,ENE,74,2.0,3.0,85,0.00,,,0.00,,2013-09-05 14:12:00,
2013-09-05 09:22:00,72.0,67.0,30.16,East,81,1.0,2.0,83,0.00,,,0.00,,2013-09-05 14:22:00,
2013-09-05 09:42:00,74.0,67.0,30.17,ENE,67,0.0,2.0,78,0.00,,,0.00,,2013-09-05 14:42:00,
2013-09-05 09:52:00,76.0,67.0,30.17,West,270,0.0,1.0,73,0.00,,,0.00,,2013-09-05 14:52:00,
2013-09-05 10:11:00,78.0,67.0,30.17,ENE,60,0.0,1.0,70,0.00,,,0.00,,2013-09-05 15:11:00,
2013-09-05 10:22:00,80.0,68.0,30.17,WSW,242,0.0,1.0,67,0.00,,,0.00,,2013-09-05 15:22:00,
2013-09-05 10:44:00,82.0,68.0,30.17,ENE,69,0.0,2.0,63,0.00,,,0.00,,2013-09-05 15:44:00,
2013-09-05 10:54:00,82.0,68.0,30.17,ENE,64,1.0,3.0,62,0.00,,,0.00,,2013-09-05 15:54:00,
2013-09-05 11:13:00,83.0,69.0,30.17,ESE,119,0.0,1.0,62,0.00,,,0.00,,2013-09-05 16:13:00,
2013-09-05 11:24:00,84.0,69.0,30.17,East,81,0.0,3.0,60,0.00,,,0.00,,2013-09-05 16:24:00,
2013-09-05 11:43:00,85.0,69.0,30.17,ENE,70,0.0,2.0,59,0.00,,,0.00,,2013-09-05 16:43:00,
2013-09-05 11:54:00,85.0,67.0,30.17,ESE,103,0.0,4.0,55,0.00,,,0.00,,2013-09-05 16:54:00,
2013-09-05 12:12:00,85.0,69.0,30.17,East,89,0.0,5.0,58,0.00,,,0.00,,2013-09-05 17:12:00,
2013-09-05 12:23:00,86.0,68.0,30.16,ENE,64,2.0,3.0,55,0.00,,,0.00,,2013-09-05 17:23:00,
2013-09-05 12:43:00,87.0,69.0,30.16,ESE,118,0.0,2.0,56,0.00,,,0.00,,2013-09-05 17:43:00,
2013-09-05 12:52:00,89.0,70.0,30.16,NNE,22,0.0,3.0,53,0.00,,,0.00,,2013-09-05 17:52:00,
2013-09-05 13:12:00,90.0,69.0,30.16,ENE,70,1.0,4.0,50,0.00,,,0.00,,2013-09-05 18:12:00,
2013-09-05 13:22:00,89.0,69.0,30.16,SE,145,0.0,4.0,52,0.00,,,0.00,,2013-09-05 18:22:00,
2013-09-05 13:52:00,90.0,67.0,30.14,SSE,167,1.0,3.0,47,0.00,,,0.00,,2013-09-05 18:52:00,
2013-09-05 14:11:00,90.0,67.0,30.14,ENE,73,1.0,3.0,47,0.00,,,0.00,,2013-09-05 19:11:00,
2013-09-05 14:22:00,91.0,68.0,30.14,SSW,195,0.0,3.0,47,0.00,,,0.00,,2013-09-05 19:22:00,
2013-09-05 14:42:00,91.0,66.0,30.13,East,96,0.0,4.0,44,0.00,,,0.00,,2013-09-05 19:42:00,
2013-09-05 14:52:00,91.0,65.0,30.13,SSE,158,0.0,2.0,43,0.00,,,0.00,,2013-09-05 19:52:00,
2013-09-05 15:11:00,90.0,66.0,30.12,ESE,122,0.0,3.0,45,0.00,,,0.00,,2013-09-05 20:11:00,
2013-09-05 15:22:00,93.0,66.0,30.12,East,79,1.0,3.0,41,0.00,,,0.00,,2013-09-05 20:22:00,
2013-09-05 15:52:00,91.0,66.0,30.11,ESE,114,0.0,3.0,44,0.00,,,0.00,,2013-09-05 20:52:00,
2013-09-05 16:12:00,91.0,63.0,30.11,East,79,3.0,6.0,40,0.00,,,0.00,,2013-09-05 21:12:00,
2013-09-05 16:21:00,91.0,65.0,30.11,East,82,1.0,3.0,43,0.00,,,0.00,,2013-09-05 21:21:00,
2013-09-05 16:54:00,90.0,66.0,30.11,East,98,1.0,3.0,46,0.00,,,0.00,,2013-09-05 21:54:00,
2013-09-05 17:13:00,91.0,66.0,30.11,East,91,0.0,2.0,44,0.00,,,0.00,,2013-09-05 22:13:00,
2013-09-05 17:24:00,91.0,67.0,30.11,ESE,104,1.0,5.0,46,0.00,,,0.00,,2013-09-05 22:24:00,
2013-09-05 17:53:00,90.0,66.0,30.10,East,96,0.0,2.0,46,0.00,,,0.00,,2013-09-05 22:53:00,
2013-09-05 18:12:00,87.0,65.0,30.10,ESE,102,2.0,6.0,49,0.00,,,0.00,,2013-09-05 23:12:00,
2013-09-05 18:22:00,87.0,65.0,30.10,ENE,65,1.0,4.0,48,0.00,,,0.00,,2013-09-05 23:22:00,
2013-09-05 18:53:00,85.0,65.0,30.10,ENE,77,0.0,2.0,51,0.00,,,0.00,,2013-09-05 23:53:00,
2013-09-05 19:12:00,84.0,66.0,30.10,ENE,70,0.0,2.0,54,0.00,,,0.00,,2013-09-06 00:12:00,
2013-09-05 19:22:00,83.0,66.0,30.10,ENE,77,0.0,1.0,56,0.00,,,0.00,,2013-09-06 00:22:00,
2013-09-05 19:42:00,81.0,65.0,30.10,ENE,77,0.0,1.0,58,0.00,,,0.00,,2013-09-06 00:42:00,
2013-09-05 19:52:00,80.0,65.0,30.10,ENE,77,0.0,0.0,61,0.00,,,0.00,,2013-09-06 00:52:00,
2013-09-05 20:11:00,79.0,66.0,30.10,ENE,78,0.0,1.0,65,0.00,,,0.00,,2013-09-06 01:11:00,
2013-09-05 20:22:00,79.0,67.0,30.10,ENE,77,0.0,1.0,67,0.00,,,0.00,,2013-09-06 01:22:00,
2013-09-05 20:42:00,78.0,67.0,30.10,ENE,76,0.0,1.0,69,0.00,,,0.00,,2013-09-06 01:42:00,
2013-09-05 20:52:00,77.0,67.0,30.11,ENE,76,0.0,0.0,71,0.00,,,0.00,,2013-09-06 01:52:00,
2013-09-05 21:11:00,76.0,67.0,30.12,ENE,77,0.0,0.0,73,0.00,,,0.00,,2013-09-06 02:11:00,
2013-09-05 21:22:00,75.0,67.0,30.12,ENE,76,0.0,0.0,75,0.00,,,0.00,,2013-09-06 02:22:00,
2013-09-05 21:42:00,74.0,66.0,30.13,ENE,76,0.0,0.0,77,0.00,,,0.00,,2013-09-06 02:42:00,
2013-09-05 21:52:00,74.0,67.0,30.13,ENE,77,0.0,0.0,79,0.00,,,0.00,,2013-09-06 02:52:00,
2013-09-05 22:11:00,73.0,66.0,30.14,ENE,77,0.0,0.0,80,0.00,,,0.00,,2013-09-06 03:11:00,
2013-09-05 22:22:00,72.0,66.0,30.14,ENE,76,0.0,0.0,81,0.00,,,0.00,,2013-09-06 03:22:00,
2013-09-05 22:55:00,71.0,66.0,30.15,ENE,76,0.0,0.0,84,0.00,,,0.00,,2013-09-06 03:55:00,
2013-09-05 23:14:00,71.0,67.0,30.14,ENE,76,0.0,0.0,86,0.00,,,0.00,,2013-09-06 04:14:00,
2013-09-05 23:23:00,70.0,66.0,30.15,ENE,76,0.0,0.0,87,0.00,,,0.00,,2013-09-06 04:23:00,
2013-09-05 23:54:00,70.0,66.0,30.15,ENE,76,0.0,0.0,88,0.00,,,0.00,,2013-09-06 04:54:00,